| time (UTC) | temp F | wind direction | speed MPH | gust MPH | rain 1hr in | rain 24hr in | rain mn in | humidity % | barometer mb |
| 20260504002929 | 57 | 168 | 0.0 | 0.0 | 0.00 | 0.00 | 0.00 | 35 | 1015.8 |
| 20260504002426 | 57 | 168 | 0.0 | 0.0 | 0.00 | 0.00 | 0.00 | 35 | 1016.1 |
| 20260504001924 | 57 | 347 | 0.0 | 0.0 | 0.00 | 0.00 | 0.00 | 34 | 1015.8 |
| 20260504001421 | 57 | 347 | 0.0 | 0.0 | 0.00 | 0.00 | 0.00 | 34 | 1015.8 |
| 20260504000918 | 58 | 347 | 0.0 | 0.0 | 0.00 | 0.00 | 0.00 | 34 | 1015.9 |
| 20260504000416 | 58 | 347 | 0.0 | 0.0 | 0.00 | 0.00 | 0.00 | 33 | 1015.9 |
| 20260503235912 | 59 | 347 | 0.0 | 0.0 | 0.00 | 0.00 | 0.00 | 31 | 1015.9 |
| 20260503235410 | 59 | 163 | 0.0 | 1.0 | 0.00 | 0.00 | 0.00 | 30 | 1015.7 |
| 20260503234908 | 59 | 76 | 0.0 | 1.0 | 0.00 | 0.00 | 0.00 | 30 | 1015.7 |
| 20260503234405 | 59 | 336 | 0.0 | 2.0 | 0.00 | 0.00 | 0.00 | 29 | 1015.6 |
| 20260503233902 | 60 | 201 | 0.0 | 0.0 | 0.00 | 0.00 | 0.00 | 29 | 1015.9 |
| 20260503233359 | 60 | 343 | 0.0 | 0.0 | 0.00 | 0.00 | 0.00 | 28 | 1015.5 |
| 20260503232855 | 61 | 233 | 0.0 | 1.0 | 0.00 | 0.00 | 0.00 | 28 | 1015.7 |
| 20260503232352 | 61 | 87 | 0.0 | 0.0 | 0.00 | 0.00 | 0.00 | 28 | 1015.5 |
| 20260503231850 | 61 | 124 | 0.0 | 1.0 | 0.00 | 0.00 | 0.00 | 27 | 1015.5 |
| 20260503231347 | 62 | 76 | 1.0 | 1.0 | 0.00 | 0.00 | 0.00 | 26 | 1015.6 |
| 20260503230843 | 62 | 330 | 0.0 | 2.0 | 0.00 | 0.00 | 0.00 | 27 | 1015.8 |
| 20260503230341 | 62 | 321 | 0.0 | 2.0 | 0.00 | 0.00 | 0.00 | 24 | 1015.5 |
| 20260503225839 | 63 | 210 | 0.0 | 2.0 | 0.00 | 0.00 | 0.00 | 23 | 1015.8 |
| 20260503225334 | 63 | 290 | 0.0 | 2.0 | 0.00 | 0.00 | 0.00 | 23 | 1015.4 |
| 20260503224830 | 63 | 330 | 0.0 | 2.0 | 0.00 | 0.00 | 0.00 | 26 | 1015.5 |
| 20260503224327 | 63 | 106 | 0.0 | 1.0 | 0.00 | 0.00 | 0.00 | 27 | 1015.5 |
| 20260503223825 | 63 | 224 | 0.0 | 0.0 | 0.00 | 0.00 | 0.00 | 24 | 1015.4 |
| 20260503223322 | 63 | 71 | 2.0 | 3.0 | 0.00 | 0.00 | 0.00 | 23 | 1015.4 |
| 20260503222818 | 64 | 185 | 0.0 | 2.0 | 0.00 | 0.00 | 0.00 | 25 | 1015.5 |
| 20260503222317 | 64 | 296 | 0.0 | 2.0 | 0.00 | 0.00 | 0.00 | 22 | 1015.5 |
| 20260503221814 | 64 | 311 | 0.0 | 0.0 | 0.00 | 0.00 | 0.00 | 22 | 1015.5 |
| 20260503221313 | 65 | 237 | 2.0 | 2.0 | 0.00 | 0.00 | 0.00 | 22 | 1015.7 |
| 20260503220808 | 65 | 193 | 2.0 | 2.0 | 0.00 | 0.00 | 0.00 | 27 | 1015.7 |
| 20260503220305 | 65 | 216 | 1.0 | 2.0 | 0.00 | 0.00 | 0.00 | 21 | 1015.8 |
| 20260503215802 | 65 | 213 | 0.0 | 2.0 | 0.00 | 0.00 | 0.00 | 25 | 1015.8 |
| 20260503215259 | 65 | 92 | 1.0 | 2.0 | 0.00 | 0.00 | 0.00 | 23 | 1015.7 |
| 20260503214757 | 66 | 64 | 0.0 | 1.0 | 0.00 | 0.00 | 0.00 | 21 | 1015.8 |
| 20260503214254 | 66 | 144 | 0.0 | 2.0 | 0.00 | 0.00 | 0.00 | 22 | 1015.9 |
| 20260503213752 | 65 | 109 | 1.0 | 3.0 | 0.00 | 0.00 | 0.00 | 21 | 1015.7 |
| 20260503213249 | 65 | 207 | 2.0 | 3.0 | 0.00 | 0.00 | 0.00 | 21 | 1015.5 |
| 20260503212745 | 65 | 179 | 3.0 | 3.0 | 0.00 | 0.00 | 0.00 | 26 | 1015.6 |
| 20260503212243 | 65 | 152 | 2.0 | 2.0 | 0.00 | 0.00 | 0.00 | 25 | 1015.8 |
| 20260503211741 | 65 | 199 | 1.0 | 2.0 | 0.00 | 0.00 | 0.00 | 24 | 1015.8 |
| 20260503211237 | 65 | 267 | 0.0 | 4.0 | 0.00 | 0.00 | 0.00 | 21 | 1015.8 |
| 20260503210732 | 66 | 324 | 2.0 | 3.0 | 0.00 | 0.00 | 0.00 | 24 | 1016.0 |
| 20260503210230 | 67 | 185 | 0.0 | 2.0 | 0.00 | 0.00 | 0.00 | 23 | 1016.0 |
| 20260503205725 | 66 | 290 | 0.0 | 2.0 | 0.00 | 0.00 | 0.00 | 22 | 1015.9 |
| 20260503205221 | 66 | 223 | 0.0 | 2.0 | 0.00 | 0.00 | 0.00 | 28 | 1016.0 |
| 20260503204718 | 66 | 335 | 1.0 | 2.0 | 0.00 | 0.00 | 0.00 | 23 | 1016.1 |
| 20260503204216 | 66 | 162 | 0.0 | 2.0 | 0.00 | 0.00 | 0.00 | 25 | 1016.1 |
| 20260503203713 | 68 | 324 | 1.0 | 3.0 | 0.00 | 0.00 | 0.00 | 21 | 1016.1 |
| 20260503203210 | 67 | 211 | 2.0 | 3.0 | 0.00 | 0.00 | 0.00 | 22 | 1016.3 |
| 20260503202708 | 66 | 219 | 1.0 | 2.0 | 0.00 | 0.00 | 0.00 | 26 | 1016.2 |
| 20260503202205 | 67 | 179 | 1.0 | 1.0 | 0.00 | 0.00 | 0.00 | 24 | 1016.3 |
| 20260503201703 | 67 | 67 | 0.0 | 4.0 | 0.00 | 0.00 | 0.00 | 21 | 1016.4 |
| 20260503201200 | 69 | 263 | 0.0 | 3.0 | 0.00 | 0.00 | 0.00 | 23 | 1016.5 |
| 20260503200656 | 67 | 310 | 2.0 | 6.0 | 0.00 | 0.00 | 0.00 | 23 | 1016.4 |
| 20260503200154 | 67 | 192 | 1.0 | 2.0 | 0.00 | 0.00 | 0.00 | 25 | 1016.8 |
| 20260503195650 | 66 | 174 | 0.0 | 3.0 | 0.00 | 0.00 | 0.00 | 26 | 1016.8 |
| 20260503195147 | 64 | 101 | 0.0 | 6.0 | 0.00 | 0.00 | 0.00 | 24 | 1016.7 |
| 20260503194644 | 67 | 172 | 0.0 | 4.0 | 0.00 | 0.00 | 0.00 | 22 | 1016.8 |
| 20260503194140 | 68 | 173 | 2.0 | 6.0 | 0.00 | 0.00 | 0.00 | 20 | 1016.7 |
| 20260503193637 | 68 | 330 | 0.0 | 2.0 | 0.00 | 0.00 | 0.00 | 21 | 1017.0 |
| 20260503193132 | 67 | 93 | 2.0 | 3.0 | 0.00 | 0.00 | 0.00 | 21 | 1017.1 |
| 20260503192628 | 66 | 130 | 0.0 | 3.0 | 0.00 | 0.00 | 0.00 | 23 | 1017.2 |
| 20260503192124 | 67 | 187 | 1.0 | 1.0 | 0.00 | 0.00 | 0.00 | 22 | 1017.3 |
| 20260503191621 | 67 | 314 | 2.0 | 2.0 | 0.00 | 0.00 | 0.00 | 23 | 1017.4 |
| 20260503191118 | 66 | 281 | 1.0 | 4.0 | 0.00 | 0.00 | 0.00 | 29 | 1017.5 |
| 20260503190615 | 67 | 63 | 0.0 | 3.0 | 0.00 | 0.00 | 0.00 | 25 | 1017.6 |
| 20260503190112 | 66 | 230 | 2.0 | 4.0 | 0.00 | 0.00 | 0.00 | 22 | 1017.7 |
| 20260503185609 | 66 | 261 | 2.0 | 3.0 | 0.00 | 0.00 | 0.00 | 23 | 1017.7 |
| 20260503185108 | 65 | 302 | 0.0 | 3.0 | 0.00 | 0.00 | 0.00 | 23 | 1017.9 |
| 20260503184603 | 65 | 83 | 2.0 | 3.0 | 0.00 | 0.00 | 0.00 | 27 | 1017.6 |
| 20260503184100 | 65 | 312 | 3.0 | 4.0 | 0.00 | 0.00 | 0.00 | 24 | 1017.8 |
| 20260503183557 | 64 | 76 | 0.0 | 4.0 | 0.00 | 0.00 | 0.00 | 24 | 1018.0 |
| 20260503183054 | 63 | 295 | 5.0 | 10.0 | 0.00 | 0.00 | 0.00 | 26 | 1018.1 |
| 20260503182552 | 65 | 308 | 2.0 | 4.0 | 0.00 | 0.00 | 0.00 | 24 | 1018.3 |
| 20260503182050 | 64 | 205 | 2.0 | 3.0 | 0.00 | 0.00 | 0.00 | 27 | 1018.4 |
| 20260503181547 | 63 | 247 | 1.0 | 2.0 | 0.00 | 0.00 | 0.00 | 28 | 1018.2 |
| 20260503181043 | 61 | 102 | 1.0 | 2.0 | 0.00 | 0.00 | 0.00 | 25 | 1018.2 |
| 20260503180541 | 62 | 101 | 1.0 | 4.0 | 0.00 | 0.00 | 0.00 | 27 | 1018.3 |
| 20260503180039 | 63 | 224 | 2.0 | 3.0 | 0.00 | 0.00 | 0.00 | 25 | 1018.5 |
| 20260503175536 | 63 | 209 | 0.0 | 4.0 | 0.00 | 0.00 | 0.00 | 26 | 1018.5 |
| 20260503175033 | 62 | 199 | 3.0 | 4.0 | 0.00 | 0.00 | 0.00 | 26 | 1018.7 |
| 20260503174530 | 61 | 74 | 0.0 | 4.0 | 0.00 | 0.00 | 0.00 | 29 | 1018.6 |
| 20260503174026 | 63 | 212 | 1.0 | 3.0 | 0.00 | 0.00 | 0.00 | 26 | 1018.5 |
| 20260503173520 | 62 | 251 | 0.0 | 3.0 | 0.00 | 0.00 | 0.00 | 36 | 1018.6 |
| 20260503173017 | 62 | 170 | 0.0 | 3.0 | 0.00 | 0.00 | 0.00 | 32 | 1018.7 |
| 20260503172515 | 62 | 288 | 1.0 | 2.0 | 0.00 | 0.00 | 0.00 | 28 | 1018.8 |
| 20260503172012 | 60 | 45 | 1.0 | 3.0 | 0.00 | 0.00 | 0.00 | 26 | 1018.9 |
| 20260503171508 | 60 | 257 | 1.0 | 2.0 | 0.00 | 0.00 | 0.00 | 30 | 1018.7 |
| 20260503171006 | 60 | 186 | 2.0 | 4.0 | 0.00 | 0.00 | 0.00 | 28 | 1019.1 |
| 20260503170502 | 60 | 185 | 2.0 | 5.0 | 0.00 | 0.00 | 0.00 | 26 | 1019.0 |
| 20260503150854 | 55 | 239 | 2.0 | 3.0 | 0.00 | 0.00 | 0.00 | 32 | 1020.1 |
| 20260503150350 | 56 | 190 | 2.0 | 4.0 | 0.00 | 0.00 | 0.00 | 32 | 1020.4 |
| 20260503140315 | 53 | 92 | 2.0 | 5.0 | 0.00 | 0.00 | 0.00 | 33 | 1020.1 |
| 20260503131244 | 51 | 155 | 1.0 | 2.0 | 0.00 | 0.00 | 0.00 | 45 | 1019.9 |
| 20260503130742 | 49 | 144 | 1.0 | 4.0 | 0.00 | 0.00 | 0.00 | 43 | 1019.9 |
| 20260503130239 | 50 | 171 | 1.0 | 3.0 | 0.00 | 0.00 | 0.00 | 48 | 1019.9 |
| 20260503120205 | 47 | 119 | 0.0 | 2.0 | 0.00 | 0.00 | 0.00 | 59 | 1019.8 |
| 20260503110632 | 43 | 169 | 0.0 | 1.0 | 0.00 | 0.00 | 0.00 | 72 | 1019.1 |
| 20260503110129 | 43 | 145 | 0.0 | 1.0 | 0.00 | 0.00 | 0.00 | 72 | 1019.1 |
| 20260503081446 | 42 | 201 | 0.0 | 0.0 | 0.00 | 0.00 | 0.00 | 69 | 1016.9 |
| 20260503080943 | 42 | 70 | 1.0 | 2.0 | 0.00 | 0.00 | 0.00 | 69 | 1016.9 |
| 20260503080439 | 42 | 267 | 0.0 | 1.0 | 0.00 | 0.00 | 0.00 | 69 | 1016.8 |
| 20260503072916 | 42 | 124 | 0.0 | 0.0 | 0.00 | 0.00 | 0.00 | 67 | 1016.5 |
| 20260503072413 | 42 | 124 | 0.0 | 0.0 | 0.00 | 0.00 | 0.00 | 67 | 1016.5 |
| 20260503071910 | 43 | 147 | 0.0 | 0.0 | 0.00 | 0.00 | 0.00 | 67 | 1016.3 |
| 20260503071408 | 43 | 147 | 0.0 | 0.0 | 0.00 | 0.00 | 0.00 | 65 | 1016.3 |
| 20260503070903 | 43 | 165 | 0.0 | 0.0 | 0.00 | 0.00 | 0.00 | 65 | 1016.2 |
| 20260503070401 | 43 | 178 | 0.0 | 0.0 | 0.00 | 0.00 | 0.00 | 64 | 1016.1 |
| 20260503060325 | 46 | 76 | 0.0 | 0.0 | 0.00 | 0.00 | 0.00 | 57 | 1015.8 |
| 20260503054814 | 47 | 142 | 0.0 | 0.0 | 0.00 | 0.00 | 0.00 | 56 | 1016.1 |
| 20260503054309 | 47 | 145 | 0.0 | 1.0 | 0.00 | 0.00 | 0.00 | 55 | 1016.0 |
| 20260503053807 | 47 | 187 | 0.0 | 0.0 | 0.00 | 0.00 | 0.00 | 54 | 1016.0 |
| 20260503053306 | 47 | 187 | 0.0 | 0.0 | 0.00 | 0.00 | 0.00 | 55 | 1015.7 |
| 20260503052801 | 48 | 156 | 0.0 | 1.0 | 0.00 | 0.00 | 0.00 | 53 | 1015.9 |
| 20260503052259 | 48 | 151 | 0.0 | 0.0 | 0.00 | 0.00 | 0.00 | 54 | 1015.6 |
| 20260503051754 | 49 | 168 | 0.0 | 1.0 | 0.00 | 0.00 | 0.00 | 52 | 1015.6 |
| 20260503051251 | 49 | 145 | 0.0 | 2.0 | 0.00 | 0.00 | 0.00 | 53 | 1015.6 |
| 20260503050748 | 50 | 118 | 1.0 | 2.0 | 0.00 | 0.00 | 0.00 | 52 | 1015.6 |
| 20260503050244 | 50 | 157 | 0.0 | 2.0 | 0.00 | 0.00 | 0.00 | 52 | 1015.6 |
| 20260503045743 | 50 | 131 | 1.0 | 2.0 | 0.00 | 0.00 | 0.00 | 50 | 1015.6 |
| 20260503045240 | 50 | 168 | 0.0 | 2.0 | 0.00 | 0.00 | 0.00 | 52 | 1015.7 |
| 20260503044736 | 50 | 148 | 2.0 | 2.0 | 0.00 | 0.00 | 0.00 | 51 | 1015.7 |
| 20260503044233 | 49 | 177 | 0.0 | 1.0 | 0.00 | 0.00 | 0.00 | 53 | 1015.6 |
| 20260503043730 | 49 | 188 | 2.0 | 2.0 | 0.00 | 0.00 | 0.00 | 54 | 1015.8 |
| 20260503043227 | 50 | 158 | 0.0 | 2.0 | 0.00 | 0.00 | 0.00 | 52 | 1015.5 |
| 20260503042723 | 50 | 181 | 0.0 | 2.0 | 0.00 | 0.00 | 0.00 | 51 | 1015.5 |
| 20260503042220 | 50 | 145 | 0.0 | 0.0 | 0.00 | 0.00 | 0.00 | 52 | 1015.6 |
| 20260503041716 | 50 | 124 | 0.0 | 1.0 | 0.00 | 0.00 | 0.00 | 49 | 1015.6 |
| 20260503041214 | 50 | 156 | 0.0 | 0.0 | 0.00 | 0.00 | 0.00 | 48 | 1015.4 |
| 20260503040711 | 51 | 207 | 0.0 | 0.0 | 0.00 | 0.00 | 0.00 | 47 | 1015.6 |
| 20260503040208 | 51 | 168 | 0.0 | 0.0 | 0.00 | 0.00 | 0.00 | 45 | 1015.6 |
| 20260503035705 | 51 | 214 | 0.0 | 0.0 | 0.00 | 0.00 | 0.00 | 46 | 1015.4 |
| 20260503035202 | 51 | 168 | 0.0 | 0.0 | 0.00 | 0.00 | 0.00 | 47 | 1015.7 |
| 20260503034700 | 51 | 145 | 0.0 | 0.0 | 0.00 | 0.00 | 0.00 | 48 | 1015.5 |
| 20260503034156 | 51 | 168 | 0.0 | 1.0 | 0.00 | 0.00 | 0.00 | 48 | 1015.5 |
| 20260503033654 | 51 | 233 | 0.0 | 1.0 | 0.00 | 0.00 | 0.00 | 49 | 1015.4 |
| 20260503033152 | 52 | 145 | 0.0 | 0.0 | 0.00 | 0.00 | 0.00 | 49 | 1015.4 |
| 20260503032649 | 52 | 156 | 0.0 | 1.0 | 0.00 | 0.00 | 0.00 | 48 | 1015.3 |
| 20260503032148 | 52 | 137 | 0.0 | 1.0 | 0.00 | 0.00 | 0.00 | 50 | 1015.3 |
| 20260503031645 | 52 | 140 | 0.0 | 0.0 | 0.00 | 0.00 | 0.00 | 47 | 1015.4 |
| 20260503031143 | 52 | 156 | 0.0 | 0.0 | 0.00 | 0.00 | 0.00 | 45 | 1015.2 |
| 20260503030638 | 52 | 145 | 0.0 | 0.0 | 0.00 | 0.00 | 0.00 | 48 | 1015.3 |
| 20260503030135 | 52 | 171 | 0.0 | 0.0 | 0.00 | 0.00 | 0.00 | 46 | 1015.2 |
| 20260503025632 | 52 | 171 | 0.0 | 0.0 | 0.00 | 0.00 | 0.00 | 46 | 1015.4 |
| 20260503025130 | 52 | 166 | 0.0 | 0.0 | 0.00 | 0.00 | 0.00 | 46 | 1015.3 |
| 20260503024626 | 52 | 171 | 0.0 | 0.0 | 0.00 | 0.00 | 0.00 | 48 | 1015.2 |
| 20260503024123 | 52 | 151 | 0.0 | 1.0 | 0.00 | 0.00 | 0.00 | 47 | 1015.3 |
| 20260503023620 | 52 | 145 | 0.0 | 1.0 | 0.00 | 0.00 | 0.00 | 47 | 1015.3 |
| 20260503023118 | 52 | 189 | 0.0 | 2.0 | 0.00 | 0.00 | 0.00 | 47 | 1015.3 |
| 20260503022613 | 52 | 169 | 0.0 | 1.0 | 0.00 | 0.00 | 0.00 | 50 | 1015.3 |
| 20260503022108 | 53 | 165 | 0.0 | 1.0 | 0.00 | 0.00 | 0.00 | 45 | 1015.2 |
| 20260503021605 | 53 | 162 | 0.0 | 1.0 | 0.00 | 0.00 | 0.00 | 47 | 1015.1 |
| 20260503021102 | 53 | 145 | 0.0 | 0.0 | 0.00 | 0.00 | 0.00 | 46 | 1015.2 |
| 20260503020559 | 53 | 147 | 0.0 | 1.0 | 0.00 | 0.00 | 0.00 | 46 | 1015.2 |
| 20260503020056 | 53 | 168 | 0.0 | 1.0 | 0.00 | 0.00 | 0.00 | 44 | 1015.4 |
| 20260503015552 | 53 | 194 | 0.0 | 0.0 | 0.00 | 0.00 | 0.00 | 45 | 1015.4 |
| 20260503015050 | 53 | 194 | 0.0 | 1.0 | 0.00 | 0.00 | 0.00 | 45 | 1015.2 |
| 20260503014546 | 53 | 230 | 0.0 | 2.0 | 0.00 | 0.00 | 0.00 | 44 | 1015.2 |
| 20260503014044 | 54 | 179 | 1.0 | 2.0 | 0.00 | 0.00 | 0.00 | 43 | 1015.0 |
| 20260503013541 | 54 | 223 | 0.0 | 0.0 | 0.00 | 0.00 | 0.00 | 43 | 1015.1 |
| 20260503013038 | 54 | 178 | 0.0 | 1.0 | 0.00 | 0.00 | 0.00 | 42 | 1015.1 |
| 20260503012536 | 54 | 150 | 0.0 | 1.0 | 0.00 | 0.00 | 0.00 | 40 | 1014.9 |
| 20260503012032 | 54 | 178 | 1.0 | 1.0 | 0.00 | 0.00 | 0.00 | 45 | 1014.9 |
| 20260503011529 | 54 | 151 | 0.0 | 2.0 | 0.00 | 0.00 | 0.00 | 42 | 1014.9 |
| 20260503011026 | 54 | 157 | 1.0 | 2.0 | 0.00 | 0.00 | 0.00 | 45 | 1014.8 |
| 20260503010522 | 54 | 156 | 0.0 | 1.0 | 0.00 | 0.00 | 0.00 | 42 | 1014.9 |
| 20260503010020 | 54 | 241 | 0.0 | 1.0 | 0.00 | 0.00 | 0.00 | 43 | 1014.7 |
| 20260503005517 | 55 | 145 | 0.0 | 2.0 | 0.00 | 0.00 | 0.00 | 43 | 1014.7 |
| 20260503005014 | 55 | 131 | 0.0 | 2.0 | 0.00 | 0.00 | 0.00 | 41 | 1014.5 |
| 20260503004510 | 55 | 205 | 0.0 | 2.0 | 0.00 | 0.00 | 0.00 | 44 | 1014.4 |
| 20260503004008 | 55 | 207 | 0.0 | 2.0 | 0.00 | 0.00 | 0.00 | 41 | 1014.3 |
| 20260503003505 | 55 | 150 | 0.0 | 1.0 | 0.00 | 0.00 | 0.00 | 41 | 1014.4 |